Orbital Elements at Epoch 2459200.5 (2020-Dec-17.0) TDB
Reference: JPL 21 (heliocentric ecliptic J2000)
Element | Value | Uncertainty (1-sigma) | Units |
e | .1900969753954305 | 3.2271e-08 | |
a | 2.335370360453126 | 8.4912e-09 | au |
q | 1.89142351850285 | 7.7162e-08 | au |
i | 5.846033700238094 | 4.056e-06 | deg |
node | 20.19975041527242 | 3.0477e-05 | deg |
peri | 39.3917210717245 | 3.2119e-05 | deg |
M | 293.8474065077274 | 1.0807e-05 | deg |
tp | 2459440.039118693569 (2021-Aug-13.53911869) | 3.9769e-05 | TDB |
period | 1303.563143594027 3.57 | 7.1095e-06 1.946e-08 | d yr |
n | .2761661387629075 | 1.5062e-09 | deg/d |
Q | 2.779317202403401 | 1.0105e-08 | au |
|
| | Orbit Determination Parameters
Additional Information
|